Flag for South Africa Weather past 2 weeks in Pretoria, South Africa

Now
36 °F

Chilly.


Feels Like: 36 °F
Forecast: 37 / 68 °F
Wind: 2 mph from South

Location: Waterkloof Lmb

Current Time: Jul 30, 2014 at 8:10:37 AM

Latest Report: Jul 30, 2014 at 7:00 AM


Visibility: N/A

Pressure: 30.54 "Hg

Humidity: 93%

Dew point: 34 °F

Location of PretoriaLocation

Historic Weather in Pretoria — Graph

°F

Pretoria temperature yesterday

Maximum temperature yesterday: 64 °F (at 3:00 PM)
Minimum temperature yesterday: 45 °F (at 5:00 AM)
Average temperature yesterday: 54 °F

Past Weeks' High & Low Weather Summary

 TemperatureHumidityPressure
High73 °F (Jul 24, 3:00 PM)93% (Jul 30, 5:00 AM)30.63 "Hg (Jul 30, 5:00 AM)
Low32 °F (Jul 27, 4:00 AM)9% (Jul 27, 2:00 PM)30.09 "Hg (Jul 18, 3:00 PM)
Average52 °F46%30.35 "Hg
* Reported Jul 15 7:00 AM — Jul 30 7:00 AM, Pretoria, Weather by CustomWeather, © 2014

Note: Actual official high and low records may vary slightly from our data, if they occured in-between our weather recording intervals... More about our weather records

Advertising

Pretoria weather history for previous 24 hours

 ConditionsComfort  
Time TempWeatherWind HumidityBarometerVisibility
7:00 AM
Jul 30
36 °FChilly.2 mph93%30.54 "HgN/A
6:00 AM37 °FChilly.2 mph93%30.51 "HgN/A
5:00 AM41 °FQuite cool.5 mph93%30.51 "HgN/A
4:00 AM41 °FQuite cool.2 mph87%30.51 "HgN/A
3:00 AM45 °FQuite cool.3 mph87%30.51 "HgN/A
2:00 AM46 °FCool.7 mph82%30.51 "HgN/A
1:00 AM46 °FCool.6 mph82%30.51 "HgN/A
12:00 AM48 °FCool.6 mph76%30.54 "HgN/A
11:00 PM
Jul 29
50 °FCool.9 mph67%30.54 "HgN/A
10:00 PM50 °FCool.9 mph67%30.54 "HgN/A
9:00 PM52 °FCool.8 mph58%30.54 "HgN/A
8:00 PM54 °FCool.8 mph54%30.54 "HgN/A
7:00 PM55 °FRefreshingly cool.8 mph47%30.54 "HgN/A
6:00 PM57 °FRefreshingly cool.7 mph41%30.51 "HgN/A
5:00 PM61 °FRefreshingly cool.8 mph36%30.51 "HgN/A
4:00 PM63 °FMild.8 mph37%30.51 "HgN/A
3:00 PM64 °FMild.8 mph34%30.54 "HgN/A
2:00 PM63 °FMild.6 mph37%30.54 "HgN/A
1:00 PM61 °FRefreshingly cool.9 mph39%30.57 "HgN/A
12:00 PM61 °FRefreshingly cool.10 mph39%30.60 "HgN/A
11:00 AM57 °FRefreshingly cool.9 mph48%30.63 "HgN/A
10:00 AM54 °FCool.7 mph58%30.63 "HgN/A
9:00 AM50 °FCool.8 mph67%30.63 "HgN/A
8:00 AM46 °FCool.9 mph71%30.60 "HgN/A
Weather by CustomWeather, © 2014

See weather overviewHow to use our weather pages